FW2264 Weather Reports


Display with metric or nautical units.
time (UTC)temp
F
wind
direction
speed
MPH
gust
MPH
rain 1hr
in
rain 24hr
in
rain mn
in
humidity
%
barometer
mb
20260508125727 49 166 4.0 5.0 0.00 0.00 0.00 67 1012.5
20260508125228 49 163 3.0 5.0 0.00 0.00 0.00 67 1012.4
20260508124728 49 163 3.0 4.0 0.00 0.00 0.00 68 1012.4
20260508124228 49 163 2.0 4.0 0.00 0.00 0.00 69 1012.3
20260508123728 49 159 2.0 4.0 0.00 0.00 0.00 68 1012.3
20260508123228 49 160 2.0 4.0 0.00 0.00 0.00 70 1012.3
20260508122726 48 161 3.0 4.0 0.00 0.00 0.00 70 1012.3
20260508122221 48 159 3.0 4.0 0.00 0.00 0.00 71 1012.3
20260508121715 48 159 3.0 4.0 0.00 0.00 0.00 70 1012.4
20260508121209 48 162 3.0 4.0 0.00 0.00 0.00 72 1012.2
20260508120703 48 165 3.0 5.0 0.00 0.00 0.00 71 1012.2
20260508120157 47 163 3.0 5.0 0.00 0.00 0.00 74 1012.2
20260508115650 47 167 3.0 5.0 0.00 0.00 0.00 74 1012.3
20260508115144 46 162 2.0 4.0 0.00 0.00 0.00 75 1012.2
20260508114638 45 167 2.0 3.0 0.00 0.00 0.00 75 1012.1
20260508114133 45 169 1.0 2.0 0.00 0.00 0.00 79 1012.1
20260508113627 44 175 1.0 2.0 0.00 0.00 0.00 79 1012.1
20260508113121 44 175 1.0 2.0 0.00 0.00 0.00 78 1012.1
20260508112615 43 181 1.0 1.0 0.00 0.00 0.00 79 1012.1
20260508112109 43 181 1.0 1.0 0.00 0.00 0.00 80 1012.1
20260508111603 43 181 1.0 1.0 0.00 0.00 0.00 79 1012.1
20260508111056 43 181 1.0 1.0 0.00 0.00 0.00 79 1012.0
20260508110551 42 181 1.0 1.0 0.00 0.00 0.00 79 1012.0
20260508110045 42 181 1.0 1.0 0.00 0.00 0.00 80 1011.9
20260508105802 42 181 1.0 1.0 0.00 0.00 0.00 81 1011.9
20260508105038 41 181 0.0 1.0 0.00 0.00 0.00 82 1011.8
20260508104528 41 181 1.0 1.0 0.00 0.00 0.00 82 1011.8
20260508104020 41 181 1.0 1.0 0.00 0.00 0.00 82 1011.7
20260508103739 41 181 1.0 1.0 0.00 0.00 0.00 82 1011.7
20260508103009 41 181 0.0 1.0 0.00 0.00 0.00 82 1011.7
20260508102503 41 181 0.0 1.0 0.00 0.00 0.00 83 1011.6
20260508101957 40 181 0.0 2.0 0.00 0.00 0.00 86 1011.6
20260508101452 40 181 0.0 2.0 0.00 0.00 0.00 88 1011.5
20260508100945 39 181 0.0 1.0 0.00 0.00 0.00 89 1011.5
20260508100439 39 181 0.0 0.0 0.00 0.00 0.00 89 1011.5
20260508095933 40 181 0.0 0.0 0.00 0.00 0.00 89 1011.6
20260508095427 40 181 0.0 0.0 0.00 0.00 0.00 89 1011.6
20260508094921 40 181 0.0 0.0 0.00 0.00 0.00 90 1011.7
20260508094415 39 181 0.0 0.0 0.00 0.00 0.00 89 1011.7
20260508093909 39 181 0.0 0.0 0.00 0.00 0.00 88 1011.8
20260508093403 40 181 0.0 0.0 0.00 0.00 0.00 88 1011.8
20260508092857 40 181 0.0 0.0 0.00 0.00 0.00 88 1011.8
20260508092351 40 181 0.0 0.0 0.00 0.00 0.00 87 1011.8
20260508092331 40 181 0.0 0.0 0.00 0.00 0.00 87 1011.8
20260508091338 40 181 0.0 0.0 0.00 0.00 0.00 86 1011.8
20260508090833 40 181 0.0 0.0 0.00 0.00 0.00 86 1011.9
20260508090549 40 181 0.0 0.0 0.00 0.00 0.00 85 1011.9
20260508085821 40 181 0.0 0.0 0.00 0.00 0.00 85 1011.9
20260508085315 41 181 0.0 0.0 0.00 0.00 0.00 85 1011.9
20260508084809 41 181 0.0 0.0 0.00 0.00 0.00 85 1011.9
20260508084520 41 181 0.0 0.0 0.00 0.00 0.00 84 1011.9
20260508083757 42 181 0.0 0.0 0.00 0.00 0.00 83 1011.9
20260508083251 42 181 0.0 0.0 0.00 0.00 0.00 82 1012.0
20260508082745 43 181 0.0 0.0 0.00 0.00 0.00 82 1011.9
20260508082239 43 181 0.0 0.0 0.00 0.00 0.00 81 1011.8
20260508081952 43 181 0.0 0.0 0.00 0.00 0.00 81 1011.8
20260508081227 44 181 0.0 0.0 0.00 0.00 0.00 80 1011.7
20260508080723 44 181 0.0 0.0 0.00 0.00 0.00 79 1011.7
20260508080215 45 181 0.0 0.0 0.00 0.00 0.00 78 1011.8
20260508075710 45 181 0.0 0.0 0.00 0.00 0.00 78 1011.9
20260508075203 45 181 0.0 0.0 0.00 0.00 0.00 77 1011.9
20260508074918 45 181 0.0 0.0 0.00 0.00 0.00 77 1012.0
20260508074152 46 181 0.0 0.0 0.00 0.00 0.00 78 1012.0
20260508073645 46 181 0.0 0.0 0.00 0.00 0.00 76 1012.0
20260508073139 46 181 0.0 0.0 0.00 0.00 0.00 78 1012.0
20260508072855 46 181 0.0 0.0 0.00 0.00 0.00 76 1012.1
20260508072133 46 181 0.0 0.0 0.00 0.00 0.00 77 1012.2
20260508071633 47 181 0.0 0.0 0.00 0.00 0.00 74 1012.0
20260508071133 47 181 0.0 2.0 0.00 0.00 0.00 76 1012.0
20260508070631 47 181 0.0 2.0 0.00 0.00 0.00 76 1012.0
20260508070129 47 181 0.0 2.0 0.00 0.00 0.00 72 1012.2
20260508065847 47 181 1.0 2.0 0.00 0.00 0.00 70 1012.3
20260508065347 47 181 2.0 4.0 0.00 0.00 0.00 70 1012.5
20260508064629 48 182 2.0 4.0 0.00 0.00 0.00 69 1012.6
20260508064129 48 182 3.0 6.0 0.00 0.00 0.00 68 1012.6
20260508063629 48 180 3.0 6.0 0.00 0.00 0.00 68 1012.6
20260508063130 48 174 3.0 5.0 0.00 0.00 0.00 68 1012.7
20260508062629 48 180 3.0 5.0 0.00 0.00 0.00 68 1012.8
20260508062129 48 180 4.0 6.0 0.00 0.00 0.00 68 1013.1
20260508061629 47 183 4.0 6.0 0.00 0.00 0.00 68 1013.1
20260508061129 46 176 3.0 6.0 0.00 0.00 0.00 72 1013.0
20260508060857 45 169 1.0 6.0 0.00 0.00 0.00 78 1013.0
20260508060127 44 200 1.0 3.0 0.00 0.00 0.00 80 1012.8
20260508055849 44 202 1.0 2.0 0.00 0.00 0.00 82 1012.8
20260508055127 44 178 1.0 2.0 0.00 0.00 0.00 84 1012.6
20260508054627 43 178 0.0 2.0 0.00 0.00 0.00 84 1012.4
20260508054353 43 178 0.0 2.0 0.00 0.00 0.00 83 1012.2
20260508053627 43 178 0.0 0.0 0.00 0.00 0.00 83 1012.2
20260508053126 43 178 0.0 0.0 0.00 0.00 0.00 82 1012.3
20260508052629 43 178 0.0 0.0 0.00 0.00 0.00 82 1012.3
20260508052127 43 178 0.0 0.0 0.00 0.00 0.00 82 1012.3
20260508051627 43 178 0.0 0.0 0.00 0.00 0.00 80 1012.3
20260508051127 43 178 0.0 0.0 0.00 0.00 0.00 79 1012.4
20260508050627 43 178 0.0 0.0 0.00 0.00 0.00 81 1012.4
20260508050127 43 178 0.0 0.0 0.00 0.00 0.00 80 1012.5
20260508045627 43 178 0.0 0.0 0.00 0.00 0.00 81 1012.4
20260508045126 43 178 0.0 0.0 0.00 0.00 0.00 79 1012.5
20260508044627 43 178 0.0 0.0 0.00 0.00 0.00 81 1012.5
20260508044127 43 178 0.0 0.0 0.00 0.00 0.00 82 1012.5
20260508043624 43 178 0.0 0.0 0.00 0.00 0.00 82 1012.5
20260508043118 43 178 0.0 0.0 0.00 0.00 0.00 79 1012.5
20260508042617 43 178 0.0 0.0 0.00 0.00 0.00 78 1012.5
20260508042116 43 178 0.0 0.0 0.00 0.00 0.00 78 1012.6
20260508041614 43 178 0.0 0.0 0.00 0.00 0.00 78 1012.5
20260508041113 43 178 0.0 0.0 0.00 0.00 0.00 78 1012.6
20260508040611 43 178 0.0 0.0 0.00 0.00 0.00 78 1012.6
20260508040109 43 178 0.0 0.0 0.00 0.00 0.00 79 1012.6
20260508035827 43 178 0.0 0.0 0.00 0.00 0.00 79 1012.6
20260508035106 43 178 0.0 0.0 0.00 0.00 0.00 79 1012.5
20260508034606 43 178 0.0 1.0 0.00 0.00 0.00 81 1012.6
20260508034106 43 178 0.0 1.0 0.00 0.00 0.00 81 1012.7
20260508033606 43 178 0.0 0.0 0.00 0.00 0.00 81 1012.7
20260508033105 42 178 0.0 0.0 0.00 0.00 0.00 80 1012.7
20260508033042 42 178 0.0 0.0 0.00 0.00 0.00 78 1012.6
20260508032105 42 178 0.0 0.0 0.00 0.00 0.00 78 1012.5
20260508031606 42 178 0.0 0.0 0.00 0.00 0.00 77 1012.5
20260508031106 42 178 0.0 0.0 0.00 0.00 0.00 80 1012.4
20260508030606 42 178 0.0 1.0 0.00 0.00 0.00 79 1012.5
20260508030107 42 178 0.0 1.0 0.00 0.00 0.00 79 1012.5
20260508025826 42 188 0.0 0.0 0.00 0.00 0.00 78 1012.5
20260508025106 42 188 0.0 2.0 0.00 0.00 0.00 79 1012.5
20260508024606 42 188 0.0 2.0 0.00 0.00 0.00 79 1012.6
20260508024103 42 188 0.0 1.0 0.00 0.00 0.00 78 1012.5
20260508023818 42 188 0.0 0.0 0.00 0.00 0.00 77 1012.5
20260508023050 42 188 0.0 0.0 0.00 0.00 0.00 78 1012.4
20260508022545 42 188 0.0 0.0 0.00 0.00 0.00 77 1012.3
20260508022039 43 188 0.0 0.0 0.00 0.00 0.00 78 1012.4
20260508021804 43 188 0.0 0.0 0.00 0.00 0.00 76 1012.5
20260508021027 43 188 0.0 0.0 0.00 0.00 0.00 74 1012.5
20260508020520 43 188 0.0 0.0 0.00 0.00 0.00 74 1012.4
20260508020232 43 188 0.0 0.0 0.00 0.00 0.00 73 1012.4
20260508015509 43 188 0.0 0.0 0.00 0.00 0.00 72 1012.6
20260508015454 44 188 0.0 0.0 0.00 0.00 0.00 71 1012.5
20260508014457 44 188 0.0 0.0 0.00 0.00 0.00 70 1012.3
20260508013952 44 188 0.0 0.0 0.00 0.00 0.00 71 1012.4
20260508013445 44 188 0.0 0.0 0.00 0.00 0.00 68 1012.4
20260508012939 45 188 0.0 0.0 0.00 0.00 0.00 68 1012.3
20260508012433 45 188 0.0 0.0 0.00 0.00 0.00 69 1012.3
20260508011927 45 188 0.0 0.0 0.00 0.00 0.00 65 1012.2
20260508011422 46 188 0.0 0.0 0.00 0.00 0.00 65 1012.2
20260508010915 46 188 0.0 0.0 0.00 0.00 0.00 67 1012.1
20260508010409 47 188 0.0 0.0 0.00 0.00 0.00 68 1012.1
20260508005902 47 188 0.0 0.0 0.00 0.00 0.00 66 1012.1
20260508005355 48 188 0.0 0.0 0.00 0.00 0.00 59 1012.1
20260508004849 48 188 0.0 0.0 0.00 0.00 0.00 63 1012.1
20260508004343 49 188 0.0 0.0 0.00 0.00 0.00 58 1012.0
20260508003836 49 188 0.0 0.0 0.00 0.00 0.00 56 1011.9
20260508003331 50 188 0.0 0.0 0.00 0.00 0.00 60 1012.0
20260508003044 51 188 0.0 0.0 0.00 0.00 0.00 59 1011.9
20260508002319 51 188 0.0 2.0 0.00 0.00 0.00 55 1011.9
20260508001813 52 188 1.0 2.0 0.00 0.00 0.00 51 1011.8
20260508001308 52 188 1.0 3.0 0.00 0.00 0.00 49 1011.9
20260508000801 52 190 2.0 3.0 0.00 0.00 0.00 46 1011.8
20260508000257 52 194 2.0 4.0 0.00 0.00 0.00 46 1011.7
20260507235749 53 194 2.0 4.0 0.00 0.00 0.00 44 1011.8
20260507235506 53 188 1.0 4.0 0.00 0.00 0.00 46 1011.6
20260507234737 53 200 1.0 2.0 0.00 0.00 0.00 44 1011.6
20260507234231 54 194 0.0 2.0 0.00 0.00 0.00 47 1011.6
20260507233726 54 204 0.0 3.0 0.00 0.00 0.00 48 1011.6
20260507233219 54 203 1.0 3.0 0.00 0.00 0.00 45 1011.6
20260507232713 54 203 1.0 3.0 0.00 0.00 0.00 45 1011.6
20260507232207 53 139 1.0 2.0 0.00 0.00 0.00 45 1011.6
20260507231701 53 186 1.0 2.0 0.00 0.00 0.00 45 1011.5
20260507231155 53 242 1.0 2.0 0.00 0.00 0.00 44 1011.6
20260507230644 53 205 1.0 3.0 0.00 0.00 0.00 45 1011.6
20260507230139 53 153 1.0 4.0 0.00 0.00 0.00 46 1011.7
20260507225633 53 213 1.0 4.0 0.00 0.00 0.00 44 1011.7
20260507225127 54 196 1.0 3.0 0.00 0.00 0.00 44 1011.7
20260507224621 54 173 2.0 3.0 0.00 0.00 0.00 46 1011.7
20260507224115 53 182 2.0 4.0 0.00 0.00 0.00 47 1011.8
20260507223609 54 192 3.0 9.0 0.00 0.00 0.00 43 1011.8
20260507223323 54 176 3.0 9.0 0.00 0.00 0.00 45 1011.8
20260507222557 54 180 2.0 7.0 0.00 0.00 0.00 43 1011.8
20260507222311 54 171 2.0 5.0 0.00 0.00 0.00 42 1011.8
20260507221545 54 182 2.0 5.0 0.00 0.00 0.00 41 1011.8
20260507221259 54 203 2.0 6.0 0.00 0.00 0.00 44 1011.9
20260507220534 54 186 2.0 6.0 0.00 0.00 0.00 41 1011.8
20260507220027 54 208 2.0 5.0 0.00 0.00 0.00 42 1011.7
20260507215521 54 172 2.0 5.0 0.00 0.00 0.00 42 1011.7
20260507215015 55 194 4.0 8.0 0.00 0.00 0.00 41 1011.7
20260507214509 55 196 5.0 8.0 0.00 0.00 0.00 44 1011.7
20260507214007 56 185 4.0 8.0 0.00 0.00 0.00 42 1011.6
20260507213507 56 203 3.0 9.0 0.00 0.00 0.00 44 1011.6
20260507213005 56 191 4.0 9.0 0.00 0.00 0.00 42 1011.5
20260507212504 56 169 3.0 9.0 0.00 0.00 0.00 40 1011.5
20260507212446 56 190 2.0 6.0 0.00 0.00 0.00 42 1011.5
20260507211503 56 236 2.0 8.0 0.00 0.00 0.00 43 1011.4
20260507211004 57 201 2.0 8.0 0.00 0.00 0.00 40 1011.3
20260507210503 56 252 2.0 6.0 0.00 0.00 0.00 43 1011.4
20260507210003 56 180 3.0 9.0 0.00 0.00 0.00 42 1011.3
20260507205503 56 202 4.0 9.0 0.00 0.00 0.00 43 1011.3
20260507205001 55 141 4.0 8.0 0.00 0.00 0.00 44 1011.4
20260507204459 55 188 3.0 8.0 0.00 0.00 0.00 43 1011.3
20260507204000 55 244 2.0 6.0 0.00 0.00 0.00 44 1011.4
20260507203459 55 261 3.0 10.0 0.00 0.00 0.00 44 1011.4
20260507203218 55 171 5.0 10.0 0.00 0.00 0.00 44 1011.3
20260507202939 55 178 6.0 11.0 0.00 0.00 0.00 45 1011.3
20260507201959 56 193 6.0 11.0 0.00 0.00 0.00 47 1011.4
20260507201459 55 202 5.0 10.0 0.00 0.00 0.00 46 1011.5
20260507200959 55 188 5.0 10.0 0.00 0.00 0.00 45 1011.4
20260507200459 55 180 5.0 10.0 0.00 0.00 0.00 49 1011.3
20260507195959 55 161 4.0 9.0 0.00 0.00 0.00 48 1011.4
20260507195459 55 240 4.0 8.0 0.00 0.00 0.00 47 1011.3
20260507194959 55 190 4.0 9.0 0.00 0.00 0.00 45 1011.4
20260507194459 56 215 5.0 12.0 0.00 0.00 0.00 47 1011.5
20260507193958 55 196 7.0 12.0 0.00 0.00 0.00 47 1011.6
20260507193459 55 178 5.0 10.0 0.00 0.00 0.00 45 1011.5
20260507193230 55 171 4.0 10.0 0.00 0.00 0.00 47 1011.5
20260507192724 56 179 6.0 10.0 0.00 0.00 0.00 47 1011.5
20260507191959 55 200 7.0 11.0 0.00 0.00 0.00 49 1011.6
20260507191459 54 171 7.0 11.0 0.00 0.00 0.00 50 1011.6
20260507190959 54 175 5.0 11.0 0.00 0.00 0.00 50 1011.6
20260507190725 55 187 4.0 11.0 0.00 0.00 0.00 52 1011.7
20260507185957 55 248 4.0 11.0 0.00 0.00 0.00 48 1011.7
20260507185456 55 184 5.0 11.0 0.00 0.00 0.00 51 1011.7
20260507184950 54 172 6.0 11.0 0.00 0.00 0.00 50 1011.7
20260507184444 54 177 6.0 12.0 0.00 0.00 0.00 50 1011.7
20260507184156 55 187 7.0 12.0 0.00 0.00 0.00 51 1011.7
20260507183432 55 174 7.0 12.0 0.00 0.00 0.00 49 1011.7
20260507182926 55 178 6.0 12.0 0.00 0.00 0.00 49 1011.7
20260507182900 55 181 4.0 10.0 0.00 0.00 0.00 49 1011.6
20260507181914 55 189 4.0 8.0 0.00 0.00 0.00 49 1011.6
20260507181408 55 196 3.0 8.0 0.00 0.00 0.00 51 1011.7
20260507181119 54 177 4.0 10.0 0.00 0.00 0.00 45 1011.7
20260507180356 55 186 6.0 10.0 0.00 0.00 0.00 45 1011.8
20260507175851 55 184 5.0 9.0 0.00 0.00 0.00 48 1011.7
20260507175344 55 183 6.0 10.0 0.00 0.00 0.00 50 1011.8
20260507174838 55 174 6.0 10.0 0.00 0.00 0.00 47 1011.9
20260507174331 56 184 4.0 9.0 0.00 0.00 0.00 46 1011.9
20260507173826 55 176 4.0 9.0 0.00 0.00 0.00 51 1012.0
20260507173320 54 192 5.0 9.0 0.00 0.00 0.00 47 1012.0
20260507172814 55 190 5.0 9.0 0.00 0.00 0.00 50 1012.1
20260507172310 55 182 4.0 8.0 0.00 0.00 0.00 48 1012.2
20260507171802 54 187 4.0 8.0 0.00 0.00 0.00 46 1012.2
20260507171255 54 182 5.0 11.0 0.00 0.00 0.00 47 1012.3
20260507170750 54 184 5.0 11.0 0.00 0.00 0.00 48 1012.3
20260507170244 54 179 5.0 9.0 0.00 0.00 0.00 48 1012.2
20260507165738 54 179 5.0 13.0 0.00 0.00 0.00 49 1012.2
20260507165232 54 176 5.0 13.0 0.00 0.00 0.00 49 1012.3
20260507164725 54 178 5.0 10.0 0.00 0.00 0.00 48 1012.3
20260507164220 54 186 4.0 10.0 0.00 0.00 0.00 46 1012.3
20260507163714 55 176 4.0 9.0 0.00 0.00 0.00 49 1012.3
20260507163208 54 182 5.0 10.0 0.00 0.00 0.00 47 1012.3
20260507162702 54 176 5.0 10.0 0.00 0.00 0.00 49 1012.3
20260507162157 53 169 4.0 9.0 0.00 0.00 0.00 49 1012.3
20260507161650 54 178 3.0 8.0 0.00 0.00 0.00 47 1012.3
20260507161144 54 178 4.0 8.0 0.00 0.00 0.00 49 1012.2
20260507160638 54 165 5.0 9.0 0.00 0.00 0.00 50 1012.3
20260507160132 53 173 4.0 9.0 0.00 0.00 0.00 48 1012.3
20260507155626 53 186 4.0 10.0 0.00 0.00 0.00 49 1012.2
20260507155342 53 194 4.0 10.0 0.00 0.00 0.00 49 1012.2
20260507154835 53 173 5.0 10.0 0.00 0.00 0.00 52 1012.3
20260507154108 53 187 4.0 10.0 0.00 0.00 0.00 53 1012.2
20260507153601 53 196 4.0 8.0 0.00 0.00 0.00 49 1012.2
20260507153056 53 166 4.0 8.0 0.00 0.00 0.00 50 1012.2
20260507152550 53 179 4.0 8.0 0.00 0.00 0.00 51 1012.1
20260507152307 52 166 4.0 9.0 0.00 0.00 0.00 53 1012.1
20260507151538 52 173 3.0 9.0 0.00 0.00 0.00 52 1012.1
20260507151032 52 179 3.0 7.0 0.00 0.00 0.00 51 1012.1
20260507150526 52 200 3.0 8.0 0.00 0.00 0.00 50 1012.1
20260507150020 52 188 4.0 8.0 0.00 0.00 0.00 51 1012.1
20260507145513 52 212 4.0 8.0 0.00 0.00 0.00 51 1012.2
20260507145008 52 180 4.0 8.0 0.00 0.00 0.00 55 1012.1
20260507144502 52 184 3.0 7.0 0.00 0.00 0.00 56 1012.2
20260507143956 51 190 3.0 7.0 0.00 0.00 0.00 55 1012.2
20260507143449 51 179 2.0 5.0 0.00 0.00 0.00 60 1012.2
20260507142945 50 186 3.0 6.0 0.00 0.00 0.00 57 1012.2
20260507142438 50 194 3.0 6.0 0.00 0.00 0.00 56 1012.3
20260507141932 50 185 3.0 6.0 0.00 0.00 0.00 59 1012.3
20260507141426 50 184 3.0 6.0 0.00 0.00 0.00 58 1012.4
20260507140920 50 185 2.0 5.0 0.00 0.00 0.00 60 1012.4
20260507140414 49 178 2.0 5.0 0.00 0.00 0.00 61 1012.3
20260507135909 49 187 2.0 5.0 0.00 0.00 0.00 62 1012.4
20260507135402 49 175 3.0 5.0 0.00 0.00 0.00 62 1012.5
20260507134856 49 188 3.0 5.0 0.00 0.00 0.00 63 1012.5
20260507134615 49 176 3.0 6.0 0.00 0.00 0.00 63 1012.5
20260507133844 49 183 2.0 6.0 0.00 0.00 0.00 63 1012.6
20260507133338 48 176 2.0 6.0 0.00 0.01 0.00 66 1012.6
20260507132832 48 207 3.0 5.0 0.00 0.01 0.00 66 1012.6
20260507132326 47 188 3.0 5.0 0.00 0.01 0.00 66 1012.7
20260507131820 47 188 3.0 5.0 0.00 0.01 0.00 67 1012.7
20260507131315 47 174 2.0 5.0 0.00 0.01 0.00 68 1012.7
20260507130817 46 196 3.0 6.0 0.00 0.01 0.00 69 1012.6
20260507130316 46 183 3.0 6.0 0.00 0.01 0.00 71 1012.6
20260507125814 46 175 2.0 5.0 0.00 0.01 0.00 71 1012.6